{"data":{"norad_id":58402,"intl_designator":"2023-180A","name":"STARLINK-30964","alt_names":[],"object_type":"PAYLOAD","status":"ACTIVE","operator":null,"country":"US","launch_date":"2023-11-22","launch_site_code":"AFETR","launch_vehicle":null,"mission":null,"orbit_class":"UNKNOWN","rcs_meters":null,"size_class":null,"mass_kg":null,"dimensions":null,"purposes":["comms"],"wikipedia_slug":null,"has_3d_model":false,"image_url":null,"decayed_at":null,"tle_current":{"epoch":"2026-09-19T16:10:20.529408Z","epoch_age_seconds":215023,"freshness":"STALE","line1":"1 58402U 23180A   26262.67384872 -.00000420  00000+0 -57414-5 0  9999","line2":"2 58402  43.0021  37.0046 0001435 270.9386  89.1301 15.27573916157291","mean_motion":15.27573916,"eccentricity":0.0001435,"inclination_deg":43.0021,"raan_deg":37.0046,"arg_perigee_deg":270.9386,"mean_anomaly_deg":89.1301,"bstar":-5.7414e-6,"rev_number":15729,"period_min":94.267124157938,"perigee_km":482.0827309658,"apogee_km":484.05189660385,"semimajor_km":6861.2043137848,"source":"CELESTRAK","updated_at":"2026-09-21T09:00:33.869159Z"}}}